METAR Formatted Surface Weather Observation
Issued by NWS

Home | Current Version | Previous Version | Text Only | Print | Product List | Glossary On
Versions: 1 2 3 4 5 6 7 8 9 10 11 12 13 14 15 16 17 18 19 20 21 22 23 24 25 26 27 28 29 30 31 32 33 34 35 36 37 38 39 40 41 42 43 44 45 46 47 48 49 50
514
SAUS45 KPUB 101757
MTRSPD
METAR KSPD 101756Z AUTO 29018KT 21/M12 A3015 RMK AO1 PK WND
30026/1724 SLP180 6//// T02111122 10211 21006 58003 PNO $



USA.gov is the U.S. government's official web portal to all federal, state and local government web resources and services.